Flag for Germany Weather past 2 weeks in Pirmasens, Rhineland-Palatinate, Germany

Now
49 °F

Passing clouds.


Feels Like: 42 °F
Forecast: 40 / 49 °F
Wind: 20 mph from West

Location: Ramstein

Current Time: Mar 30, 2015 at 3:10:27 AM

Latest Report: Mar 30, 2015 at 1:58 AM


Visibility: N/A

Pressure: 29.54 "Hg

Humidity: 90%

Dew point: 46 °F

Location of PirmasensLocation

Historic Weather in Pirmasens — Graph

°F

Pirmasens temperature yesterday

Maximum temperature yesterday: 52 °F (at 5:58 PM)
Minimum temperature yesterday: 50 °F (at 1:58 AM)
Average temperature yesterday: 51 °F

Past Weeks' High & Low Weather Summary

 TemperatureHumidityPressure
High65 °F (Mar 18, 3:58 PM)100% (Mar 15, 9:58 PM)30.32 "Hg (Mar 15, 9:58 PM)
Low25 °F (Mar 15, 11:58 PM)30% (Mar 18, 5:58 PM)29.49 "Hg (Mar 29, 9:02 PM)
Average42 °F80%30.05 "Hg
* Reported Mar 15 12:02 AM — Mar 30 12:59 AM, Pirmasens, Weather by CustomWeather, © 2015

Note: Actual official high and low records may vary slightly from our data, if they occured in-between our weather recording intervals... More about our weather records

Advertising

Pirmasens weather history for previous 24 hours

 ConditionsComfort  
Time TempWeatherWind HumidityBarometerVisibility
12:59 AM
Mon, Mar 30
50 °FDrizzle. Overcast.22 mph82%29.52 "HgN/A
11:58 PM
Sun, Mar 29
51 °FMostly cloudy.20 mph83%29.52 "HgN/A
11:02 PM52 °FPassing clouds.23 mph88%29.50 "HgN/A
10:58 PM52 °FPassing clouds.22 mph94%29.51 "HgN/A
10:03 PM52 °FLight rain. Mostly cloudy.22 mph94%29.49 "HgN/A
9:02 PM52 °FMostly cloudy.23 mph94%29.49 "HgN/A
8:01 PM52 °FRain. Fog.18 mph94%29.53 "Hg5 mi
7:58 PM51 °FRain. Fog.18 mph96%29.55 "Hg4 mi
7:00 PM52 °FLight rain. Mostly cloudy.25 mph94%29.53 "HgN/A
5:58 PM52 °FLight rain. Mostly cloudy.21 mph94%29.57 "HgN/A
5:02 PM50 °FLight rain. Fog.17 mph100%29.58 "Hg5 mi
4:03 PM50 °FLight rain. Mostly cloudy.16 mph100%29.62 "HgN/A
3:58 PM50 °FLight rain. Mostly cloudy.17 mph100%29.63 "HgN/A
3:00 PM50 °FLight rain. Mostly cloudy.15 mph94%29.66 "HgN/A
2:02 PM50 °FLight rain. Partly sunny.16 mph94%29.71 "HgN/A
1:58 PM51 °FLight rain. Partly sunny.17 mph89%29.72 "HgN/A
12:58 PM50 °FLight rain. Mostly cloudy.13 mph88%29.75 "HgN/A
11:58 AM50 °FLight rain. Mostly cloudy.16 mph88%29.78 "HgN/A
11:02 AM50 °FLight rain. Broken clouds.16 mph94%29.77 "HgN/A
10:58 AM50 °FLight rain. Broken clouds.16 mph100%29.78 "HgN/A
10:04 AM50 °FLight rain. Mostly cloudy.13 mph94%29.79 "HgN/A
9:58 AM50 °FLight rain. Mostly cloudy.13 mph94%29.82 "HgN/A
9:03 AM50 °FLight rain. Cloudy.13 mph88%29.81 "HgN/A
8:58 AM50 °FLight rain. Cloudy.12 mph88%29.83 "HgN/A
8:03 AM50 °FMostly cloudy.13 mph94%29.83 "HgN/A
7:59 AM50 °FMostly cloudy.14 mph94%29.83 "HgN/A
6:59 AM50 °FLight rain. Mostly cloudy.12 mph94%29.82 "HgN/A
6:58 AM51 °FMostly cloudy.13 mph93%29.85 "HgN/A
5:58 AM51 °FOvercast.16 mph92%29.85 "HgN/A
5:02 AM50 °FOvercast.15 mph100%29.85 "HgN/A
4:58 AM50 °FLight rain. Mostly cloudy.12 mph100%29.87 "HgN/A
3:58 AM50 °FLight rain. Fog.9 mph100%29.88 "Hg6 mi
3:04 AM50 °FLight rain. Mostly cloudy.17 mph100%29.89 "HgN/A
Weather by CustomWeather, © 2015

See weather overviewHow to use our weather pages